Presure
139 143 151 134 150 150 155 128 142 154 156 151 168 137 156 172 140 158 163 153 169 150 157 162 160 174 171 159 176 172 176 163 173 173 182 176 164 166 184 170 186 167 175 198 168
147 159 150 145 141 159 145 149 137 133 143 158 160 163 154 168 140 163 149 152 167 160 159 164 153 162 160 177 180 170 175 172 187 181 179 187 179 189 169 181 163 160 175 169 179
140 151 157 152 161 148 162 147 149 142 153 148 152 161 167 158 159 163 128 171 142 161 163 143 155 177 150 176 151 178 161 146 180 164 186 163 166 161 181 192 165 192 181 188 159
149 150 154 157 140 150 161 157 144 140 159 148 160 166 164 165 159 149 167 164 169 171 144 152 164 168 171 177 179 180 177 184 166 145 174 157 187 196 167 177 170 163 186 163 184
150 137 148 150 152 158 152 147 154 143 139 140 153 149 167 166 158 167 164 160 154 159 161 171 147 165 171 129 169 180 169 160 154 170 166 156 181 178 177 175 180 167 153 153 189
140 144 157 129 147 94 146 142 139 135 156 163 142 155 140 153 156 163 160 161 163 164 159 162 160 128 167 179 174 170 177 168 175 178 178 164 182 178 188 181 164 187 189 181 180
145 148 157 154 141 154 152 153 152 102 127 157 132 141 161 167 129 151 165 167 168 171 171 163 152 154 173 162 165 129 166 151 166 180 171 160 166 184 180 164 175 173 162 189 186
146 151 151 151 143 159 154 141 142 155 142 165 159 135 139 153 142 146 169 159 177 172 168 166 167 162 174 175 161 176 180 163 168 179 165 174 174 176 170 172 174 180 177 182 178
149 145 136 150 151 152 118 150 159 151 152 158 145 159 140 151 159 150 127 138 172 163 169 153 179 173 179 179 145 173 179 170 156 174 155 176 183 161 174 177 178 175 180 178 173
139 145 138 147 159 151 143 161 148 145 158 169 162 167 158 146 136 164 147 163 151 151 162 164 152 164 156 158 160 161 168 156 176 166 169 153 156 181 178 184 164 166 172 161 186
159 165 151 151 145 149 157 153 155 143 159 132 155 150 152 142 134 151 130 161 141 172 150 132 174 164 175 174 176 174 165 181 148 166 156 166 170 172 163 180 180 169 166 168 159
164 146 153 159 163 163 162 150 154 159 169 150 158 157 146 148 151 151 160 165 177 154 123 148 158 157 165 158 155 174 130 157 158 155 168 145 165 186 158 170 175 156 157 172 160
161 163 142 154 161 161 168 158 163 158 158 165 151 158 151 148 158 155 174 145 164 142 146 149 155 182 164 174 180 132 173 167 168 157 158 148 165 169 174 146 170 159 164 155 171
159 159 163 166 160 159 164 168 161 153 152 152 145 155 150 148 132 137 167 162 145 166 159 158 144 150 164 161 171 153 164 173 167 167 153 148 143 137 181 155 161 161 169 166 176
171 167 171 171 172 171 171 157 161 160 151 145 152 140 148 132 152 160 162 166 168 145 162 169 165 152 152 174 183 184 151 160 168 150 180 145 145 174 174 162 194 154 180 170 190
158 144 155 165 164 152 155 158 159 159 148 158 158 151 161 157 152 164 150 162 161 157 153 162 157 161 147 169 171 171 168 169 168 174 178 162 162 136 156 146 168 160 175 147 166
178 184 165 147 175 159 166 165 165 157 147 148 156 161 154 160 151 168 157 153 158 151 143 148 164 166 162 146 160 167 157 180 165 169 180 163 175 161 157 173 145 152 144 161 162
157 147 160 148 156 163 168 166 174 162 156 158 157 156 157 155 159 149 158 152 151 157 152 155 159 164 142 152 163 165 157 157 175 170 177 168 176 170 161 166 164 168 178 167 139
164 152 136 152 162 163 152 146 164 155 157 164 164 158 159 158 159 158 157 155 155 152 160 165 159 158 128 163 157 165 157 155 171 167 165 164 163 181 155 167 167 170 158 161 171
145 161 147 162 158 158 163 160 156 147 153 168 168 171 167 164 164 164 160 155 155 156 156 160 163 158 151 157 153 157 153 162 158 171 162 174 172 151 161 176 172 132 156 148 158
158 140 147 157 164 165 149 160 156 153 152 144 143 151 154 157 166 161 163 152 158 150 152 165 155 161 150 164 148 162 161 167 159 158 164 170 147 112 177 159 158 169 169 158 179
145 165 148 176 151 141 157 176 149 167 150 157 158 162 142 154 150 149 145 148 149 148 149 154 157 143 153 159 158 155 155 163 157 165 159 166 177 79 161 162 168 169 180 168 169
161 163 145 165 140 175 155 132 169 153 171 170 159 159 157 151 149 147 144 150 155 146 149 158 161 163 160 162 159 160 160 152 159 166 168 164 170 158 163 157 168 177 183 168 168
150 163 151 162 169 173 168 179 157 164 156 162 182 164 146 149 156 159 158 157 151 160 159 157 151 158 167 155 164 168 168 160 159 161 166 175 158 154 159 162 170 164 170 177 176
166 151 160 165 144 162 164 159 165 158 173 173 157 165 153 166 167 141 166 151 159 165 157 160 165 156 146 158 162 164 163 165 174 178 164 168 182 67 94 169 167 177 172 159 180
165 177 147 140 164 160 155 156 152 171 178 178 178 159 165 184 184 165 174 183 168 159 160 165 170 165 165 164 158 157 159 170 146 179 155 159 158 159 170 174 174 175 153 180 186
157 161 170 151 160 155 169 174 154 164 156 152 170 143 154 168 176 167 156 174 169 173 155 169 167 168 168 176 172 177 141 147 175 167 158 168 152 169 177 183 175 186 173 189 192
Wind_Speed
38 35 28 41 29 28 23 36 29 22 21 26 25 36 21 22 29 25 28 25 25 24 29 23 21 18 13 20 14 9 13 17 10 6 6 6 14 12 4 13 2 19 12 14 25
34 25 30 34 39 25 30 28 35 32 32 23 23 26 27 24 38 24 29 28 29 26 29 26 23 25 23 15 8 15 5 12 19 4 4 9 8 11 17 7 22 27 20 26 19
42 34 29 30 26 32 26 30 30 33 28 31 29 27 28 26 24 28 36 22 32 28 27 31 28 27 29 17 27 12 22 25 3 18 14 18 19 19 7 20 24 20 17 15 36
42 37 34 33 43 32 29 30 35 36 29 33 31 32 28 28 29 33 29 30 25 27 30 27 30 29 26 23 21 19 16 12 14 27 9 29 17 27 22 10 20 29 22 36 26
45 48 42 38 37 33 33 35 32 40 42 40 30 34 31 29 31 31 31 29 31 29 28 32 31 31 30 27 27 26 22 23 25 20 23 30 16 10 14 18 19 29 37 39 28
54 50 43 53 40 33 34 42 37 34 37 37 40 34 41 35 34 33 36 38 37 32 33 31 30 35 31 30 28 28 25 21 22 22 25 25 32 17 34 22 26 35 36 30 35
54 52 48 46 49 42 42 40 40 44 43 39 48 30 34 34 36 35 36 36 37 36 30 33 33 33 32 30 29 29 28 30 26 29 26 26 19 34 32 29 30 27 36 38 27
58 53 51 51 51 47 43 48 47 39 44 41 37 44 46 31 42 38 31 33 34 34 36 37 34 37 30 31 30 34 34 28 30 30 27 28 32 27 25 32 26 35 42 32 27
60 58 59 54 53 50 46 48 45 42 46 41 45 39 46 36 35 37 40 39 31 35 30 32 34 36 33 31 34 32 36 33 35 34 30 34 38 31 34 35 37 30 40 32 26
65 63 58 59 55 55 56 51 49 52 46 44 45 41 39 45 43 44 43 36 35 40 30 31 38 34 38 35 35 34 34 37 37 31 39 31 22 45 40 46 24 27 34 28 56
69 68 65 63 63 60 56 53 52 56 48 60 45 52 45 52 56 43 50 40 51 38 43 51 29 35 37 39 36 36 32 38 40 38 33 33 32 35 29 48 50 34 31 31 31
70 71 68 65 62 61 58 60 55 53 48 51 50 46 51 51 51 52 51 48 44 42 42 48 37 39 40 39 45 40 41 35 38 37 40 45 39 51 30 41 48 35 41 38 43
72 70 72 68 65 64 61 60 54 55 51 49 51 51 56 56 57 52 58 51 45 56 50 51 40 43 39 48 47 51 39 42 40 40 43 47 45 46 51 43 49 40 41 39 38
76 74 70 68 69 68 66 60 59 61 54 58 62 59 62 62 64 57 59 56 57 52 43 45 58 53 46 53 46 54 37 48 49 39 45 43 52 63 59 44 50 44 57 49 53
72 74 68 64 64 65 62 66 60 58 52 64 68 70 66 59 62 63 61 60 58 56 54 58 52 50 47 55 57 55 49 50 44 46 47 59 51 57 60 46 61 54 64 46 80
79 79 78 75 72 76 71 68 66 62 59 62 65 70 71 71 67 66 61 65 64 55 57 59 54 59 53 57 55 56 51 58 44 46 48 49 50 69 51 65 55 52 61 60 46
67 70 79 81 73 76 70 69 68 65 70 71 73 72 72 73 74 66 68 67 69 60 60 66 69 71 67 62 54 58 51 67 55 55 64 43 58 52 53 73 67 63 61 57 47
84 84 77 82 84 71 68 71 62 63 73 76 77 76 74 75 75 72 71 72 69 73 65 68 68 73 65 61 70 70 56 58 73 69 72 59 69 65 68 74 75 77 88 61 59
85 83 69 89 79 78 77 65 62 67 71 75 81 79 78 78 75 76 75 74 76 75 79 77 74 73 61 78 67 78 66 70 84 72 51 56 54 79 63 80 83 86 64 63 83
88 86 83 89 94 89 80 74 72 82 82 78 75 78 79 81 79 76 75 77 79 81 80 81 79 73 72 77 76 73 68 83 80 84 60 84 73 58 70 92 84 48 71 73 64
99 83 81 91 93 91 77 80 83 84 83 79 74 73 76 78 80 80 77 75 82 82 80 86 81 78 70 84 68 87 89 92 81 73 80 78 46 27 94 69 70 90 91 63 108
96 102 95 103 95 77 83 81 88 84 88 89 90 86 75 90 81 73 70 80 83 78 79 91 86 62 78 83 88 84 80 93 90 94 73 84 93 12 81 79 92 88 105 94 87
111 107 96 102 88 100 91 75 90 93 88 90 93 97 96 91 86 78 75 91 97 76 84 98 96 99 92 94 95 94 97 77 93 98 97 81 101 81 96 76 99 102 112 85 88
104 115 103 106 109 106 98 102 100 97 94 91 91 99 90 88 101 98 98 101 92 101 98 96 85 99 104 90 100 102 101 100 91 91 108 104 78 83 95 95 91 88 100 109 109
115 102 112 112 99 110 109 104 99 100 100 99 99 92 100 104 104 78 105 97 103 108 102 109 110 95 70 103 98 98 97 102 106 110 91 90 105 28 39 100 98 121 103 87 123
113 117 105 91 115 116 112 109 110 107 106 108 104 107 103 102 102 106 101 103 112 110 111 114 118 113 110 117 103 83 88 116 70 113 65 74 78 109 115 121 123 115 81 130 134
117 120 121 107 118 115 123 127 115 118 113 107 110 86 110 115 108 98 99 106 109 113 93 120 119 122 115 124 124 125 69 80 120 109 98 100 82 110 118 125 113 127 121 129 131
Wind_Direction
289 292 292 301 299 300 298 308 305 317 321 311 340 310 322 337 322 331 337 322 338 332 336 344 346 337 330 336 334 286 7 303 291 287 91 194 293 273 99 225 342 256 256 356 261
284 284 283 285 295 293 300 296 305 303 307 322 324 326 317 334 310 333 312 323 334 335 328 334 324 332 326 322 326 295 278 346 9 116 23 11 216 43 248 243 271 278 264 277 267
283 280 280 280 288 283 295 286 295 299 307 304 314 323 325 315 314 323 314 335 308 326 330 318 320 335 322 326 324 320 314 321 354 290 14 295 313 291 246 4 254 348 326 320 287
278 279 280 283 286 280 289 291 286 298 309 304 319 323 321 317 315 305 327 321 331 324 308 317 327 333 330 333 328 324 323 338 280 317 319 309 351 359 255 301 282 273 305 270 325
278 284 280 280 284 289 282 281 292 298 299 299 306 307 315 314 307 316 315 315 309 311 315 317 308 321 325 298 322 323 315 296 307 276 279 297 346 317 331 299 319 282 286 289 337
281 281 281 290 286 297 285 290 288 289 300 306 298 306 302 309 311 319 319 316 314 309 306 307 310 306 317 319 316 322 321 301 312 320 321 307 332 324 334 327 291 337 342 317 312
278 281 282 284 281 287 289 288 290 286 303 298 300 297 307 308 308 308 311 310 310 308 304 302 306 303 317 313 312 301 311 305 316 324 322 293 309 327 327 300 323 294 282 335 329
277 279 281 282 281 285 283 283 285 288 287 296 297 300 295 295 298 300 310 307 312 309 305 301 304 305 313 316 307 321 318 311 320 317 307 316 315 315 321 318 322 333 323 339 326
275 276 277 277 278 279 286 281 286 284 285 291 286 292 287 289 298 293 304 304 315 308 301 304 312 306 309 315 302 321 319 316 309 321 308 319 313 306 321 321 328 332 338 328 306
271 273 273 275 274 277 279 279 280 282 284 292 286 286 288 286 295 302 292 299 305 297 301 296 303 303 301 303 308 309 317 309 317 312 314 303 296 313 322 321 299 305 315 285 323
269 268 273 275 277 276 274 276 278 278 280 285 282 283 285 281 288 287 302 295 290 307 295 301 310 308 313 308 316 316 306 319 299 313 302 315 318 324 315 319 324 323 312 320 287
267 273 273 272 272 272 272 276 277 279 279 279 286 284 276 284 289 286 295 298 307 294 293 301 297 290 311 299 303 315 297 299 304 296 310 298 308 312 296 317 317 287 296 322 295
268 267 273 275 273 273 273 275 275 278 280 281 282 287 286 282 291 288 299 280 297 285 301 287 289 310 303 313 312 299 308 302 303 297 297 293 311 313 312 289 318 297 305 286 322
268 268 269 267 270 271 271 272 276 276 281 284 279 287 282 285 285 290 297 298 292 302 291 291 288 300 307 302 306 295 297 312 305 303 288 298 298 298 314 289 306 305 315 310 325
265 268 266 266 267 269 271 273 273 274 280 281 281 279 283 282 286 291 294 297 297 280 302 308 304 283 286 312 315 312 279 309 291 285 303 289 286 316 315 308 312 289 323 315 326
267 267 270 270 269 268 270 272 274 278 276 276 274 279 281 285 286 291 287 296 298 291 291 301 292 300 282 309 314 313 305 301 299 311 309 294 302 292 288 295 312 287 320 292 311
267 267 266 271 272 269 270 270 273 277 275 276 277 276 280 284 286 292 291 291 295 288 279 290 305 307 303 289 304 310 295 311 307 310 316 281 316 298 288 320 285 296 290 309 304
265 272 265 274 270 269 266 272 272 274 274 274 275 279 282 283 285 286 289 290 291 295 291 295 302 301 286 290 307 307 292 295 314 312 312 313 313 318 313 314 311 313 315 311 295
262 266 265 268 269 268 275 276 272 274 272 272 272 276 278 279 280 282 285 288 291 292 293 294 296 298 284 302 302 304 303 298 308 307 306 309 303 313 301 311 310 311 297 305 315
268 260 268 264 270 272 270 274 272 274 274 273 273 276 275 276 278 278 280 285 288 289 291 291 292 296 291 299 297 303 301 304 296 305 304 309 302 286 308 305 305 296 295 290 303
261 269 267 266 264 265 274 268 270 270 271 276 278 278 278 277 275 279 281 284 281 287 291 288 291 293 295 294 296 298 300 298 302 302 304 308 286 316 302 297 298 306 306 297 308
264 264 265 270 269 269 266 264 273 264 275 272 274 272 276 278 280 281 282 284 282 284 288 290 290 283 294 292 296 296 299 299 299 299 304 305 302 257 304 305 304 303 305 307 308
262 265 264 265 269 269 264 266 263 271 265 264 270 272 272 278 277 279 277 280 282 281 286 286 286 288 292 289 289 294 294 295 297 298 297 302 298 302 303 295 301 305 303 303 307
261 263 263 264 265 269 264 267 267 264 268 268 269 266 274 274 275 276 276 278 279 281 282 281 286 289 287 287 289 289 289 291 290 298 291 294 298 302 299 297 307 304 302 306 304
258 262 259 263 267 264 265 265 268 269 267 263 267 266 272 269 270 275 271 279 278 276 282 281 282 285 281 288 289 290 289 289 291 290 294 289 293 281 284 305 304 300 309 299 303
256 255 262 264 259 261 265 266 267 267 269 270 271 268 266 270 265 268 269 272 271 276 279 279 277 279 280 281 286 286 292 290 280 290 290 294 297 295 297 296 296 301 290 297 298
258 255 256 262 258 263 258 260 267 263 268 271 269 271 272 271 271 266 272 267 268 271 277 273 278 279 282 279 280 282 275 284 287 291 289 290 283 291 292 289 297 292 297 295 295